| time (UTC) | temp C | wind direction | speed KPH | gust KPH | rain 1hr cm | rain 24hr cm | rain mn cm | humidity % | barometer mb |
| 20260505084144 | 8 | 18 | 4.8 | 11.3 | 0.00 | 0.89 | 0.89 | 84 | 1006.5 |
| 20260505083641 | 8 | 34 | 3.2 | 11.3 | 0.00 | 0.89 | 0.89 | 84 | 1006.3 |
| 20260505083137 | 8 | 101 | 6.4 | 14.5 | 0.13 | 0.89 | 0.89 | 85 | 1005.9 |
| 20260505082634 | 8 | 41 | 4.8 | 8.0 | 0.13 | 0.89 | 0.89 | 84 | 1006.3 |
| 20260505082131 | 8 | 283 | 6.4 | 11.3 | 0.48 | 0.86 | 0.86 | 85 | 1005.9 |
| 20260505081627 | 8 | 30 | 6.4 | 17.7 | 0.97 | 0.86 | 0.86 | 84 | 1004.4 |
| 20260505081125 | 9 | 146 | 4.8 | 11.3 | 0.79 | 0.79 | 0.79 | 85 | 1006.1 |
| 20260505080621 | 9 | 159 | 1.6 | 8.0 | 0.61 | 0.69 | 0.69 | 85 | 1007.0 |
| 20260505080117 | 9 | 154 | 1.6 | 1.6 | 0.71 | 0.66 | 0.66 | 83 | 1007.4 |
| 20260505075613 | 9 | 132 | 4.8 | 4.8 | 0.61 | 0.58 | 0.58 | 82 | 1007.7 |
| 20260505075110 | 10 | 156 | 1.6 | 1.6 | 0.61 | 0.53 | 0.53 | 82 | 1007.7 |
| 20260505074607 | 10 | 151 | 0.0 | 4.8 | 0.66 | 0.48 | 0.48 | 82 | 1007.7 |
| 20260505074104 | 10 | 114 | 3.2 | 4.8 | 0.66 | 0.43 | 0.43 | 81 | 1008.0 |
| 20260505073602 | 10 | 127 | 3.2 | 3.2 | 0.61 | 0.38 | 0.38 | 81 | 1008.1 |
| 20260505073100 | 11 | 174 | 0.0 | 3.2 | 0.43 | 0.33 | 0.33 | 78 | 1008.6 |
| 20260505072555 | 11 | 174 | 1.6 | 3.2 | 0.13 | 0.28 | 0.28 | 73 | 1008.7 |
| 20260505072052 | 11 | 186 | 1.6 | 4.8 | 0.18 | 0.25 | 0.25 | 67 | 1008.2 |
| 20260505071547 | 11 | 175 | 1.6 | 3.2 | 0.18 | 0.25 | 0.25 | 67 | 1007.3 |
| 20260505071046 | 12 | 147 | 3.2 | 4.8 | 0.13 | 0.23 | 0.23 | 64 | 1006.8 |
| 20260505070543 | 12 | 183 | 1.6 | 3.2 | 0.13 | 0.23 | 0.23 | 64 | 1007.1 |
| 20260505070039 | 13 | 200 | 1.6 | 9.7 | 0.00 | 0.20 | 0.20 | 60 | 1006.4 |
| 20260505065535 | 13 | 51 | 4.8 | 14.5 | 0.00 | 0.20 | 0.20 | 58 | 1006.4 |
| 20260505065032 | 13 | 88 | 3.2 | 11.3 | 0.00 | 0.20 | 0.20 | 61 | 1006.7 |
| 20260505064528 | 13 | 163 | 0.0 | 3.2 | 0.00 | 0.20 | 0.20 | 61 | 1005.9 |
| 20260505064027 | 13 | 138 | 1.6 | 4.8 | 0.00 | 0.20 | 0.20 | 59 | 1006.1 |
| 20260505063524 | 13 | 0 | 9.7 | 14.5 | 0.00 | 0.20 | 0.20 | 61 | 1005.3 |
| 20260505063019 | 13 | 9 | 3.2 | 9.7 | 0.00 | 0.20 | 0.20 | 68 | 1005.4 |
| 20260505062516 | 14 | 174 | 0.0 | 3.2 | 0.00 | 0.20 | 0.20 | 70 | 1005.8 |
| 20260505062014 | 14 | 177 | 0.0 | 1.6 | 0.00 | 0.20 | 0.20 | 67 | 1005.5 |
| 20260505061511 | 14 | 16 | 6.4 | 11.3 | 0.00 | 0.20 | 0.20 | 66 | 1005.1 |
| 20260505061009 | 15 | 140 | 4.8 | 12.9 | 0.00 | 0.20 | 0.20 | 71 | 1004.8 |
| 20260505060506 | 14 | 41 | 4.8 | 4.8 | 0.00 | 0.20 | 0.20 | 72 | 1004.8 |
| 20260505060002 | 14 | 288 | 4.8 | 4.8 | 0.00 | 0.20 | 0.20 | 74 | 1004.7 |
| 20260505055458 | 14 | 23 | 3.2 | 8.0 | 0.00 | 0.20 | 0.20 | 74 | 1004.4 |
| 20260505054955 | 14 | 50 | 3.2 | 3.2 | 0.00 | 0.20 | 0.20 | 76 | 1004.3 |
| 20260505054452 | 13 | 140 | 3.2 | 9.7 | 0.00 | 0.20 | 0.20 | 78 | 1003.8 |
| 20260505053950 | 13 | 149 | 1.6 | 3.2 | 0.00 | 0.20 | 0.20 | 79 | 1004.2 |
| 20260505053447 | 13 | 136 | 1.6 | 4.8 | 0.00 | 0.20 | 0.20 | 78 | 1004.5 |
| 20260505052944 | 13 | 26 | 1.6 | 3.2 | 0.00 | 0.20 | 0.20 | 78 | 1004.3 |
| 20260505052441 | 13 | 180 | 0.0 | 3.2 | 0.18 | 0.20 | 0.20 | 80 | 1004.1 |
| 20260505051938 | 14 | 121 | 3.2 | 3.2 | 0.48 | 0.20 | 0.20 | 78 | 1003.8 |
| 20260505051435 | 14 | 129 | 3.2 | 4.8 | 0.61 | 0.18 | 0.18 | 77 | 1003.9 |
| 20260505050933 | 15 | 58 | 6.4 | 12.9 | 0.79 | 0.13 | 0.13 | 75 | 1004.2 |
| 20260505050431 | 16 | 30 | 6.4 | 17.7 | 0.48 | 0.08 | 0.08 | 69 | 1004.0 |
| 20260505041358 | 21 | 343 | 1.6 | 4.8 | 0.00 | 0.00 | 0.00 | 69 | 1002.6 |
| 20260505040855 | 21 | 203 | 3.2 | 4.8 | 0.00 | 0.00 | 0.00 | 69 | 1002.6 |
| 20260505040353 | 21 | 167 | 0.0 | 4.8 | 0.00 | 0.00 | 0.00 | 69 | 1002.3 |
| 20260505035850 | 21 | 172 | 1.6 | 3.2 | 0.00 | 0.00 | 0.00 | 69 | 1002.4 |
| 20260505035345 | 21 | 158 | 1.6 | 1.6 | 0.00 | 0.00 | 0.00 | 69 | 1002.4 |
| 20260505034843 | 21 | 174 | 3.2 | 3.2 | 0.00 | 0.00 | 0.00 | 69 | 1002.3 |
| 20260505034339 | 21 | 148 | 3.2 | 3.2 | 0.00 | 0.00 | 0.00 | 69 | 1002.3 |
| 20260505033837 | 21 | 163 | 1.6 | 3.2 | 0.00 | 0.00 | 0.00 | 68 | 1002.3 |
| 20260505033333 | 21 | 155 | 4.8 | 4.8 | 0.00 | 0.00 | 0.00 | 68 | 1002.6 |
| 20260505032832 | 21 | 153 | 1.6 | 1.6 | 0.00 | 0.00 | 0.00 | 68 | 1002.6 |
| 20260505032328 | 21 | 154 | 0.0 | 1.6 | 0.00 | 0.00 | 0.00 | 68 | 1002.2 |
| 20260505031825 | 21 | 155 | 0.0 | 1.6 | 0.00 | 0.00 | 0.00 | 66 | 1002.3 |
| 20260505031321 | 21 | 167 | 0.0 | 3.2 | 0.00 | 0.00 | 0.00 | 66 | 1002.2 |
| 20260505030819 | 21 | 141 | 3.2 | 4.8 | 0.00 | 0.00 | 0.00 | 66 | 1002.1 |
| 20260505030315 | 21 | 164 | 0.0 | 3.2 | 0.00 | 0.00 | 0.00 | 66 | 1002.2 |
| 20260505025810 | 20 | 164 | 1.6 | 3.2 | 0.00 | 0.00 | 0.00 | 67 | 1002.1 |
| 20260505025308 | 20 | 163 | 0.0 | 1.6 | 0.00 | 0.00 | 0.00 | 68 | 1002.1 |
| 20260505024807 | 20 | 164 | 0.0 | 0.0 | 0.00 | 0.00 | 0.00 | 68 | 1002.2 |
| 20260505024304 | 20 | 196 | 0.0 | 0.0 | 0.00 | 0.00 | 0.00 | 68 | 1001.8 |
| 20260505023801 | 20 | 196 | 0.0 | 0.0 | 0.00 | 0.00 | 0.00 | 66 | 1001.9 |
| 20260505023258 | 19 | 196 | 0.0 | 0.0 | 0.00 | 0.00 | 0.00 | 69 | 1001.7 |
| 20260505022755 | 20 | 196 | 0.0 | 0.0 | 0.00 | 0.00 | 0.00 | 68 | 1001.7 |
| 20260505022252 | 20 | 196 | 0.0 | 0.0 | 0.00 | 0.00 | 0.00 | 68 | 1001.7 |
| 20260505021749 | 20 | 196 | 0.0 | 0.0 | 0.00 | 0.00 | 0.00 | 69 | 1001.5 |
| 20260505021246 | 20 | 196 | 0.0 | 0.0 | 0.00 | 0.00 | 0.00 | 68 | 1001.4 |
| 20260505020741 | 20 | 196 | 0.0 | 0.0 | 0.00 | 0.00 | 0.00 | 68 | 1001.4 |
| 20260505020237 | 20 | 196 | 0.0 | 0.0 | 0.00 | 0.00 | 0.00 | 67 | 1001.5 |
| 20260505015734 | 20 | 196 | 0.0 | 0.0 | 0.00 | 0.00 | 0.00 | 69 | 1001.3 |
| 20260505015231 | 20 | 196 | 0.0 | 0.0 | 0.00 | 0.00 | 0.00 | 69 | 1001.3 |
| 20260505014728 | 20 | 196 | 0.0 | 0.0 | 0.00 | 0.00 | 0.00 | 68 | 1001.1 |
| 20260505014225 | 20 | 196 | 0.0 | 0.0 | 0.00 | 0.00 | 0.00 | 68 | 1000.7 |
| 20260505013722 | 21 | 196 | 0.0 | 0.0 | 0.00 | 0.00 | 0.00 | 63 | 1001.2 |
| 20260505013219 | 21 | 196 | 0.0 | 0.0 | 0.00 | 0.00 | 0.00 | 61 | 1001.1 |
| 20260505012717 | 21 | 196 | 0.0 | 0.0 | 0.00 | 0.00 | 0.00 | 60 | 1000.8 |
| 20260505012214 | 21 | 196 | 0.0 | 0.0 | 0.00 | 0.00 | 0.00 | 61 | 1000.9 |
| 20260505011710 | 22 | 196 | 0.0 | 0.0 | 0.00 | 0.00 | 0.00 | 62 | 1000.7 |
| 20260505011208 | 22 | 197 | 0.0 | 0.0 | 0.00 | 0.00 | 0.00 | 58 | 1000.9 |
| 20260505010702 | 23 | 197 | 0.0 | 0.0 | 0.00 | 0.00 | 0.00 | 54 | 1000.5 |
| 20260505010200 | 23 | 197 | 0.0 | 0.0 | 0.00 | 0.00 | 0.00 | 52 | 1000.5 |
| 20260505005655 | 23 | 197 | 0.0 | 0.0 | 0.00 | 0.00 | 0.00 | 53 | 1000.6 |
| 20260505005153 | 24 | 197 | 0.0 | 0.0 | 0.00 | 0.00 | 0.00 | 51 | 1000.5 |
| 20260505004650 | 25 | 197 | 0.0 | 0.0 | 0.00 | 0.00 | 0.00 | 50 | 1000.5 |
| 20260505004146 | 25 | 197 | 0.0 | 0.0 | 0.00 | 0.00 | 0.00 | 50 | 1000.6 |
| 20260505003644 | 25 | 197 | 0.0 | 0.0 | 0.00 | 0.00 | 0.00 | 48 | 1000.3 |
| 20260505003141 | 25 | 236 | 4.8 | 4.8 | 0.00 | 0.00 | 0.00 | 46 | 1000.2 |
| 20260505002637 | 26 | 188 | 0.0 | 1.6 | 0.00 | 0.00 | 0.00 | 47 | 1000.2 |
| 20260505002135 | 26 | 162 | 3.2 | 3.2 | 0.00 | 0.00 | 0.00 | 45 | 1000.3 |
| 20260505001632 | 26 | 200 | 1.6 | 1.6 | 0.00 | 0.00 | 0.00 | 45 | 1000.2 |
| 20260505001130 | 26 | 189 | 1.6 | 4.8 | 0.00 | 0.00 | 0.00 | 45 | 1000.3 |
| 20260505000627 | 26 | 192 | 1.6 | 4.8 | 0.00 | 0.00 | 0.00 | 45 | 1000.2 |
| 20260505000125 | 26 | 230 | 3.2 | 3.2 | 0.00 | 0.00 | 0.00 | 45 | 1000.2 |
| 20260504235621 | 26 | 194 | 1.6 | 3.2 | 0.00 | 0.00 | 0.00 | 45 | 1000.5 |
| 20260504235117 | 26 | 210 | 4.8 | 8.0 | 0.00 | 0.00 | 0.00 | 43 | 1000.3 |
| 20260504234615 | 26 | 189 | 0.0 | 1.6 | 0.00 | 0.00 | 0.00 | 46 | 1000.3 |
| 20260504234112 | 26 | 192 | 0.0 | 4.8 | 0.00 | 0.00 | 0.00 | 46 | 1000.1 |
| 20260504233607 | 26 | 231 | 1.6 | 4.8 | 0.00 | 0.00 | 0.00 | 43 | 1000.2 |
| 20260504233104 | 26 | 180 | 1.6 | 3.2 | 0.00 | 0.00 | 0.00 | 44 | 1000.3 |
| 20260504232601 | 26 | 228 | 3.2 | 8.0 | 0.00 | 0.00 | 0.00 | 43 | 1000.3 |
| 20260504232058 | 26 | 232 | 1.6 | 8.0 | 0.00 | 0.00 | 0.00 | 42 | 1000.3 |
| 20260504231555 | 27 | 231 | 3.2 | 8.0 | 0.00 | 0.00 | 0.00 | 43 | 1000.2 |
| 20260504231051 | 27 | 226 | 1.6 | 9.7 | 0.00 | 0.00 | 0.00 | 41 | 1000.3 |
| 20260504230547 | 28 | 206 | 6.4 | 9.7 | 0.00 | 0.00 | 0.00 | 39 | 1000.2 |
| 20260504230046 | 28 | 208 | 1.6 | 3.2 | 0.00 | 0.00 | 0.00 | 39 | 1000.3 |
| 20260504225543 | 27 | 222 | 1.6 | 9.7 | 0.00 | 0.00 | 0.00 | 41 | 1000.3 |
| 20260504225040 | 27 | 251 | 3.2 | 9.7 | 0.00 | 0.00 | 0.00 | 41 | 1000.4 |
| 20260504224536 | 28 | 208 | 0.0 | 3.2 | 0.00 | 0.00 | 0.00 | 39 | 1000.1 |
| 20260504224034 | 27 | 210 | 1.6 | 3.2 | 0.00 | 0.00 | 0.00 | 39 | 1000.5 |
| 20260504223531 | 27 | 209 | 1.6 | 3.2 | 0.00 | 0.00 | 0.00 | 41 | 1000.3 |
| 20260504223026 | 26 | 186 | 3.2 | 8.0 | 0.00 | 0.00 | 0.00 | 40 | 1000.3 |
| 20260504222523 | 26 | 183 | 1.6 | 4.8 | 0.00 | 0.00 | 0.00 | 45 | 1000.5 |
| 20260504222021 | 26 | 175 | 0.0 | 4.8 | 0.00 | 0.00 | 0.00 | 41 | 1000.5 |
| 20260504221518 | 26 | 204 | 3.2 | 8.0 | 0.00 | 0.00 | 0.00 | 43 | 1000.4 |
| 20260504221015 | 26 | 188 | 1.6 | 4.8 | 0.00 | 0.00 | 0.00 | 41 | 1000.6 |
| 20260504220511 | 26 | 206 | 3.2 | 8.0 | 0.00 | 0.00 | 0.00 | 42 | 1000.7 |
| 20260504220008 | 26 | 238 | 1.6 | 4.8 | 0.00 | 0.00 | 0.00 | 42 | 1000.5 |
| 20260504215505 | 26 | 186 | 8.0 | 12.9 | 0.00 | 0.00 | 0.00 | 42 | 1000.6 |
| 20260504215003 | 27 | 209 | 6.4 | 14.5 | 0.00 | 0.00 | 0.00 | 43 | 1000.8 |
| 20260504214458 | 27 | 191 | 0.0 | 4.8 | 0.00 | 0.00 | 0.00 | 43 | 1000.7 |
| 20260504213955 | 26 | 170 | 0.0 | 3.2 | 0.00 | 0.00 | 0.00 | 45 | 1000.8 |
| 20260504213450 | 26 | 186 | 1.6 | 11.3 | 0.00 | 0.00 | 0.00 | 43 | 1000.9 |
| 20260504212948 | 26 | 181 | 6.4 | 9.7 | 0.00 | 0.00 | 0.00 | 42 | 1000.7 |
| 20260504212444 | 26 | 259 | 8.0 | 9.7 | 0.00 | 0.00 | 0.00 | 41 | 1000.8 |
| 20260504211942 | 27 | 202 | 6.4 | 16.1 | 0.00 | 0.00 | 0.00 | 42 | 1000.8 |
| 20260504211438 | 27 | 233 | 4.8 | 4.8 | 0.00 | 0.00 | 0.00 | 43 | 1000.7 |
| 20260504210936 | 27 | 229 | 4.8 | 9.7 | 0.00 | 0.00 | 0.00 | 41 | 1001.0 |
| 20260504210432 | 27 | 201 | 3.2 | 8.0 | 0.00 | 0.00 | 0.00 | 42 | 1000.7 |
| 20260504205929 | 27 | 183 | 4.8 | 8.0 | 0.00 | 0.00 | 0.00 | 42 | 1000.8 |
| 20260504205427 | 28 | 202 | 6.4 | 9.7 | 0.00 | 0.00 | 0.00 | 40 | 1000.8 |
| 20260504204925 | 27 | 140 | 4.8 | 4.8 | 0.00 | 0.00 | 0.00 | 45 | 1000.8 |
| 20260504204423 | 28 | 197 | 3.2 | 9.7 | 0.00 | 0.00 | 0.00 | 41 | 1000.9 |
| 20260504203922 | 27 | 191 | 3.2 | 8.0 | 0.00 | 0.00 | 0.00 | 39 | 1000.9 |
| 20260504203419 | 28 | 174 | 0.0 | 8.0 | 0.00 | 0.00 | 0.00 | 43 | 1000.9 |
| 20260504202915 | 27 | 231 | 4.8 | 8.0 | 0.00 | 0.00 | 0.00 | 40 | 1001.2 |
| 20260504202412 | 27 | 190 | 1.6 | 9.7 | 0.00 | 0.00 | 0.00 | 45 | 1001.1 |
| 20260504201908 | 27 | 278 | 11.3 | 14.5 | 0.00 | 0.00 | 0.00 | 41 | 1001.0 |
| 20260504201406 | 27 | 231 | 4.8 | 8.0 | 0.00 | 0.00 | 0.00 | 42 | 1001.0 |
| 20260504200903 | 27 | 263 | 6.4 | 9.7 | 0.00 | 0.00 | 0.00 | 43 | 1001.0 |
| 20260504200359 | 27 | 206 | 1.6 | 4.8 | 0.00 | 0.00 | 0.00 | 47 | 1001.1 |
| 20260504195856 | 27 | 148 | 6.4 | 9.7 | 0.00 | 0.00 | 0.00 | 43 | 1001.0 |
| 20260504195352 | 27 | 145 | 1.6 | 12.9 | 0.00 | 0.00 | 0.00 | 43 | 1001.2 |
| 20260504194849 | 27 | 115 | 4.8 | 9.7 | 0.00 | 0.00 | 0.00 | 45 | 1001.2 |
| 20260504194345 | 27 | 257 | 4.8 | 9.7 | 0.00 | 0.00 | 0.00 | 39 | 1001.2 |
| 20260504193841 | 27 | 129 | 3.2 | 3.2 | 0.00 | 0.00 | 0.00 | 41 | 1001.4 |
| 20260504193338 | 27 | 224 | 8.0 | 11.3 | 0.00 | 0.00 | 0.00 | 40 | 1001.4 |
| 20260504192837 | 27 | 162 | 1.6 | 4.8 | 0.00 | 0.00 | 0.00 | 42 | 1001.5 |
| 20260504192334 | 27 | 229 | 4.8 | 8.0 | 0.00 | 0.00 | 0.00 | 41 | 1001.3 |
| 20260504191833 | 26 | 217 | 1.6 | 11.3 | 0.00 | 0.00 | 0.00 | 43 | 1001.3 |
| 20260504191330 | 26 | 203 | 1.6 | 8.0 | 0.00 | 0.00 | 0.00 | 43 | 1001.4 |
| 20260504190825 | 26 | 216 | 8.0 | 9.7 | 0.00 | 0.00 | 0.00 | 40 | 1001.6 |
| 20260504190322 | 26 | 349 | 3.2 | 8.0 | 0.00 | 0.00 | 0.00 | 46 | 1001.3 |
| 20260504185818 | 26 | 35 | 4.8 | 8.0 | 0.00 | 0.00 | 0.00 | 43 | 1001.5 |
| 20260504185315 | 26 | 236 | 3.2 | 9.7 | 0.00 | 0.00 | 0.00 | 43 | 1001.7 |
| 20260504184811 | 26 | 197 | 8.0 | 12.9 | 0.00 | 0.00 | 0.00 | 42 | 1001.5 |
| 20260504184307 | 26 | 163 | 11.3 | 16.1 | 0.00 | 0.00 | 0.00 | 44 | 1001.5 |
| 20260504183803 | 26 | 195 | 4.8 | 11.3 | 0.00 | 0.00 | 0.00 | 45 | 1001.5 |
| 20260504183300 | 26 | 209 | 3.2 | 4.8 | 0.00 | 0.00 | 0.00 | 41 | 1001.6 |
| 20260504182758 | 26 | 263 | 3.2 | 11.3 | 0.00 | 0.00 | 0.00 | 43 | 1001.8 |
| 20260504182255 | 26 | 169 | 3.2 | 11.3 | 0.00 | 0.00 | 0.00 | 43 | 1001.8 |
| 20260504181753 | 26 | 142 | 4.8 | 9.7 | 0.00 | 0.00 | 0.00 | 45 | 1001.8 |
| 20260504181250 | 25 | 187 | 1.6 | 3.2 | 0.00 | 0.00 | 0.00 | 45 | 1001.7 |
| 20260504180749 | 25 | 168 | 3.2 | 11.3 | 0.00 | 0.00 | 0.00 | 44 | 1001.8 |
| 20260504180247 | 26 | 172 | 3.2 | 9.7 | 0.00 | 0.00 | 0.00 | 43 | 1002.1 |
| 20260504175744 | 26 | 199 | 3.2 | 9.7 | 0.00 | 0.00 | 0.00 | 43 | 1002.1 |
| 20260504175241 | 25 | 155 | 3.2 | 8.0 | 0.00 | 0.00 | 0.00 | 45 | 1002.0 |
| 20260504174739 | 25 | 186 | 4.8 | 8.0 | 0.00 | 0.00 | 0.00 | 43 | 1002.1 |
| 20260504174237 | 25 | 184 | 4.8 | 9.7 | 0.00 | 0.00 | 0.00 | 45 | 1002.0 |
| 20260504173733 | 25 | 208 | 4.8 | 9.7 | 0.00 | 0.00 | 0.00 | 44 | 1001.9 |
| 20260504173230 | 25 | 229 | 6.4 | 9.7 | 0.00 | 0.00 | 0.00 | 46 | 1002.2 |
| 20260504172727 | 25 | 214 | 4.8 | 11.3 | 0.00 | 0.00 | 0.00 | 44 | 1002.1 |
| 20260504172223 | 25 | 216 | 3.2 | 3.2 | 0.00 | 0.00 | 0.00 | 44 | 1002.2 |
| 20260504171720 | 25 | 119 | 6.4 | 8.0 | 0.00 | 0.00 | 0.00 | 46 | 1002.0 |
| 20260504171217 | 25 | 183 | 4.8 | 11.3 | 0.00 | 0.00 | 0.00 | 46 | 1002.2 |
| 20260504170713 | 25 | 180 | 0.0 | 4.8 | 0.00 | 0.00 | 0.00 | 50 | 1002.3 |
| 20260504170211 | 24 | 212 | 8.0 | 9.7 | 0.00 | 0.00 | 0.00 | 45 | 1002.1 |
| 20260504160129 | 24 | 188 | 3.2 | 4.8 | 0.00 | 0.00 | 0.00 | 46 | 1002.3 |
| 20260504151057 | 23 | 153 | 3.2 | 4.8 | 0.00 | 0.00 | 0.00 | 46 | 1002.4 |
| 20260504150554 | 22 | 162 | 4.8 | 9.7 | 0.00 | 0.00 | 0.00 | 49 | 1002.6 |
| 20260504141020 | 19 | 181 | 0.0 | 3.2 | 0.00 | 0.00 | 0.00 | 53 | 1002.9 |
| 20260504140516 | 20 | 213 | 4.8 | 9.7 | 0.00 | 0.00 | 0.00 | 53 | 1002.8 |
| 20260504130441 | 20 | 195 | 4.8 | 11.3 | 0.00 | 0.00 | 0.00 | 50 | 1002.4 |
| 20260504110328 | 17 | 203 | 1.6 | 4.8 | 0.00 | 0.00 | 0.00 | 53 | 1002.8 |
| 20260504100246 | 18 | 192 | 1.6 | 4.8 | 0.00 | 0.00 | 0.00 | 50 | 1003.4 |